#timestamp,LO_Frequency,Hit,StdDev 
1634947215.7,286047001.1,N
1634947235.5,286047000.8,N
1634947255.4,286047000.4,N
1634947275.2,286047000.6,N
1634947295.1,286047001.1,N
1634947296.0,286047001.1,N
1634947315.8,286047000.1,N
1634947335.6,286047002.8,N
1634947355.5,286047002.7,N
1634947375.3,286047002.6,N
1634947395.1,286047000.2,N
1634947415.9,286047000.1,N
1634947435.7,286046998.2,N
1634947455.6,286047000.9,N
1634947475.4,286046998.5,N
1634947495.2,286046998.2,N
1634947515.1,286047000.9,N
1634947516.0,286047000.9,N
1634947535.8,286047001.2,N
1634947555.7,286047000.5,N
1634947575.5,286046999.2,N
1634947595.3,286046998.3,N
1634947615.2,286047001.1,N
1634947635.9,286046998.4,N
1634947655.7,286047000.4,N
1634947675.6,286046998.8,N
1634947695.4,286046999.0,N
1634947715.3,286046999.9,N
1634947735.1,286047000.0,N
1634947736.0,286047000.0,N
1634947755.8,286047002.5,N
1634947775.7,286047002.2,N
1634947795.5,286047000.1,N
1634947815.3,286047000.2,N
1634947835.2,286046998.2,N
1634947855.0,286047002.8,N
1634947855.9,286047002.8,N
1634947875.8,286047000.4,N
1634947895.6,286047000.4,N
1634947915.4,286047002.7,N
1634947935.3,286047003.6,N
1634947955.1,286047001.6,N
1634947975.9,286047004.7,Y
1634947995.7,286047005.5,P
1634948015.5,286047003.2,N
1634948035.4,286047003.0,N
1634948055.2,286047003.5,N
1634948075.1,286047006.7,Y
1634948076.0,286047006.7,P
1634948095.8,286047005.9,P
1634948115.6,286047004.2,N
1634948135.5,286047000.7,N
1634948155.3,286047004.4,N
1634948175.1,286047002.4,N
1634948195.9,286046998.9,N
1634948215.7,286047000.9,N
1634948235.6,286047002.7,N
1634948255.4,286047000.5,N
1634948275.2,286047000.8,N
1634948295.1,286046999.4,N
1634948296.0,286046999.4,N
1634948315.8,286046998.9,N
1634948335.6,286046999.4,N
1634948355.5,286047000.5,N
1634948375.3,286046998.4,N
1634948395.2,286046999.4,N
1634948415.9,286046999.1,N
1634948435.7,286046997.9,N
1634948455.6,286046997.6,N
1634948475.4,286046996.6,N
1634948495.3,286047000.3,N
1634948515.1,286046999.0,N
1634948516.0,286046999.0,N
1634948535.8,286047001.9,N
1634948555.7,286047003.8,N
1634948575.5,286047000.1,N
1634948595.3,286047002.8,N
1634948615.2,286047000.8,N
1634948635.0,286047000.0,N
1634948635.9,286047000.0,N
1634948655.8,286047002.7,N
1634948675.6,286047000.2,N
1634948695.4,286047002.6,N
1634948715.3,286047001.5,N
1634948735.1,286047003.1,N
1634948755.9,286047003.3,N
1634948775.7,286047002.9,N
1634948795.5,286047004.2,N
1634948815.4,286047001.3,N
1634948835.2,286047002.3,N
1634948855.0,286047004.3,N
1634948855.9,286047004.3,N
1634948875.8,286047004.0,N
1634948895.6,286047001.5,N
1634948915.5,286047000.5,N
1634948935.3,286047002.5,N
1634948955.1,286047002.4,N
1634948975.9,286047000.2,N
1634948995.7,286047002.1,N
1634949015.5,286047000.8,N
1634949035.4,286047001.2,N
1634949055.2,286047003.8,N
1634949075.1,286047006.0,Y
1634949076.0,286047006.0,P
1634949095.8,286046999.7,N
1634949115.6,286047002.8,N
1634949135.5,286046998.6,N
1634949155.3,286046998.9,N
1634949175.1,286047001.0,N
1634949195.9,286047000.6,N
1634949215.7,286047000.3,N
1634949235.6,286047000.0,N
1634949255.4,286047000.3,N
1634949275.2,286047002.4,N
1634949295.1,286047002.1,N
1634949296.0,286047002.1,N
1634949315.8,286047001.9,N
1634949335.6,286047001.9,N
1634949355.5,286046999.7,N
1634949375.3,286047004.2,N
1634949395.2,286047002.4,N
1634949415.9,286046998.2,N
1634949435.7,286047002.7,N
1634949455.6,286047004.2,N
1634949475.4,286046998.5,N
1634949495.2,286047000.6,N
1634949515.1,286047000.6,N
1634949516.0,286047000.6,N
1634949535.8,286046999.3,N
1634949555.7,286046996.9,N
1634949575.5,286046998.9,N
1634949595.3,286046999.9,N
1634949615.2,286047002.1,N
1634949635.0,286046999.7,N
1634949635.9,286046999.7,N
1634949655.8,286047000.2,N
1634949675.6,286047004.3,N
1634949695.4,286047004.4,N
1634949715.3,286047005.1,N
1634949735.1,286047006.0,N
1634949755.8,286047003.4,N
1634949775.7,286047005.5,N
1634949795.5,286047007.1,Y
1634949815.4,286047004.6,P
1634949835.2,286047005.0,P
1634949855.0,286047004.5,N
1634949855.9,286047004.5,Y
1634949875.8,286046999.7,P
1634949895.6,286047000.7,N
1634949915.5,286047002.8,N
1634949935.3,286047001.8,N
1634949955.1,286047002.6,N
1634949975.9,286047002.0,N
1634949995.7,286047001.5,N
1634950015.5,286047002.1,N
1634950035.4,286047003.9,Y
1634950055.2,286047001.7,P
1634950075.1,286047002.3,P
1634950076.0,286047002.3,P
1634950095.8,286047005.8,Y
1634950115.6,286047003.1,P
1634950135.5,286047001.9,P
1634950155.3,286047004.1,P
1634950175.2,286047002.0,N
1634950195.9,286047004.2,Y
1634950215.7,286047000.1,P
1634950235.6,286046999.9,N
1634950255.4,286047000.5,N
1634950275.2,286047000.0,N
1634950295.1,286047000.4,N
1634950296.0,286047000.4,N
1634950315.8,286047004.2,Y
1634950335.7,286047001.3,P
1634950355.5,286047001.4,P
1634950375.3,286047002.7,P
1634950395.2,286046997.1,Y
1634950415.0,286046993.5,P
1634950415.9,286046993.5,N
1634950435.8,286046996.1,N
1634950455.6,286046994.0,N
1634950475.4,286046993.6,N
1634950495.3,286046993.2,N
1634950515.1,286046992.3,N
1634950535.9,286046992.6,N
1634950555.7,286046992.2,N
1634950575.5,286046990.5,Y
1634950595.4,286046993.5,P
1634950615.2,286046997.7,P
1634950635.1,286046997.8,N
1634950636.0,286046997.8,N
1634950655.8,286046998.8,N
1634950675.6,286046998.3,N
1634950695.5,286046996.9,N
1634950715.3,286046996.8,N
1634950735.1,286047000.7,N
1634950755.9,286046997.2,N
1634950775.7,286047000.5,N
1634950795.6,286047000.6,N
